Weather History for Tirana, Albania

Change the Weather History Date:

Thursday, January 9, 2014

  Actual Average Record
Temperature  
Mean Temperature 48 °F -  
Max Temperature 61 °F 52 °F 62 °F (2011)
Min Temperature 35 °F 35 °F 23 °F (2002)
Degree Days  
Heating Degree Days 17    
Moisture  
Dew Point 42 °F    
Average Humidity 82    
Maximum Humidity 100    
Minimum Humidity 51    
Precipitation  
Precipitation 0.00 in -13.12 in - ()
Sea Level Pressure  
Sea Level Pressure 30.20 in    
Wind  
Wind Speed 3 mph ()    
Max Wind Speed 7 mph    
Max Gust Speed -    
Visibility 4.1 miles    
Events Fog    
Averages and records for this station are not official NWS values.
T = Trace of Precipitation, MM = Missing Value Source: Averaged Metar Reports

Daily Weather History Graph

Daily Weather History Graph

Search for Another Location

Airport:

Trip Planner

Search our weather history database for the weather conditions in past years. The results will help you decide how hot, cold, wet, or windy it might be!

Date:

Astronomy

Jan. 09, 2014 Rise Set
Actual Time 7:06 AM CET 4:29 PM CET
Civil Twilight 6:36 AM CET 5:00 PM CET
Nautical Twilight 6:01 AM CET 5:35 PM CET
Astronomical Twilight 5:28 AM CET 6:08 PM CET
Moon 11:47 AM CET (1/9) 12:54 AM CET (1/9)
Length of Visible Light 10h 24m
Length of Day
9h 22m
Waxing Gibbous, 63% of the Moon is Illuminated
Jan 9
Waxing Gibbous
Jan 16
Full
Jan 24
Last Quarter
Jan 30
New
Feb 6
First Quarter

Hourly Weather History & Observations

Time (CET) Temp. Windchill Dew Point Humidity Pressure Visibility Wind Dir Wind Speed Gust Speed Precip Events Conditions
12:00 AM 42 °F - 41 °F 94% 30.25 in 0 mi SSE 2.2 mph - -  
12:20 AM 41.0 °F 39.0 °F 39.2 °F 93% 30.24 in 0.9 mi SE 3.5 mph - N/A Fog Patches of Fog
12:50 AM 41.0 °F - 39.2 °F 93% 30.24 in 0.4 mi SSE 2.3 mph - N/A Fog Patches of Fog
1:00 AM 38 °F - 36 °F 92% 30.25 in 1 mi SSE 4.5 mph - -  
1:20 AM 41.0 °F - 39.2 °F 93% 30.24 in 0.0 mi South 2.3 mph - N/A Fog Fog
1:50 AM 39.2 °F 35.9 °F 37.4 °F 93% 30.24 in 0.0 mi South 4.6 mph - N/A Fog Fog
2:00 AM 41 °F - 40 °F 93% 30.25 in 0 mi South 4.5 mph - -   Unknown
2:20 AM 42.8 °F 41.1 °F 41.0 °F 93% 30.21 in 0.0 mi South 3.5 mph - N/A Fog Fog
2:50 AM 42.8 °F 40.1 °F 41.0 °F 93% 30.21 in 0.1 mi SSE 4.6 mph - N/A Fog Fog
3:00 AM 43 °F - 41 °F 91% 30.24 in 0 mi SE 2.2 mph - -   Unknown
3:20 AM 42.8 °F - 41.0 °F 93% 30.21 in 0.0 mi Variable 2.3 mph - N/A Fog Fog
3:50 AM 41.0 °F - 41.0 °F 100% 30.21 in 0.0 mi SSE 2.3 mph - N/A Fog Fog
4:00 AM 41 °F - 39 °F 92% 30.23 in 0 mi SSE 2.2 mph - -   Unknown
4:20 AM 41.0 °F - 39.2 °F 93% 30.21 in 0.1 mi SE 2.3 mph - N/A Fog Fog
4:50 AM 41.0 °F 39.0 °F 39.2 °F 93% 30.21 in 0.1 mi SSE 3.5 mph - N/A Fog Fog
5:00 AM 40 °F - 38 °F 90% 30.22 in 0 mi SSE 4.5 mph - -   Scattered Clouds
5:20 AM 39.2 °F 35.9 °F 37.4 °F 93% 30.21 in 0.1 mi South 4.6 mph - N/A Fog Fog
5:50 AM 37.4 °F 33.8 °F 35.6 °F 93% 30.21 in 0.6 mi South 4.6 mph - N/A Fog Patches of Fog
6:00 AM 38 °F - 36 °F 91% 30.22 in 0 mi South 4.5 mph - -  
6:20 AM 39.2 °F 37.0 °F 37.4 °F 93% 30.21 in 0.7 mi SSE 3.5 mph - N/A Fog Patches of Fog
6:50 AM 37.4 °F - 35.6 °F 93% 30.21 in 0.4 mi Calm Calm - N/A Fog Patches of Fog
7:00 AM 38 °F - 37 °F 94% 30.23 in 0 mi South 2.2 mph - -  
7:20 AM 37.4 °F 34.9 °F 37.4 °F 100% 30.21 in 0.2 mi South 3.5 mph - N/A Fog Patches of Fog
7:50 AM 35.6 °F 32.8 °F 33.8 °F 93% 30.21 in 0.2 mi South 3.5 mph - N/A Fog Fog
8:00 AM 38 °F - 36 °F 92% 30.24 in 0 mi SSE 2.2 mph - -  
8:20 AM 39.2 °F - 37.4 °F 93% 30.21 in 0.1 mi SE 2.3 mph - N/A Fog Fog
8:50 AM 42.8 °F - 41.0 °F 93% 30.21 in 3.7 mi SSE 2.3 mph - N/A   Partly Cloudy
9:00 AM 44 °F - 43 °F 95% 30.24 in 6 mi South 2.2 mph - -   Mostly Cloudy
9:20 AM 44.6 °F - 44.6 °F 100% 30.24 in 6.2 mi Variable 2.3 mph - N/A   Scattered Clouds
9:50 AM 48.2 °F - 46.4 °F 93% 30.24 in 6.2 mi Variable 2.3 mph - N/A   Partly Cloudy
10:00 AM 49 °F - 44 °F 76% 30.24 in 5 mi ESE 2.2 mph - -  
10:20 AM 51.8 °F - 46.4 °F 82% 30.21 in 5.0 mi Variable 2.3 mph - N/A   Unknown
10:50 AM 55.4 °F - 46.4 °F 72% 30.21 in - South 3.5 mph - N/A   Clear
11:00 AM 56 °F - 47 °F 62% 30.21 in 8 mi South 4.5 mph - -  
11:20 AM 57.2 °F - 46.4 °F 67% 30.18 in - SSW 3.5 mph - N/A   Clear
11:50 AM 59.0 °F - 48.2 °F 67% 30.18 in - Variable 2.3 mph - N/A   Clear
12:00 PM 59 °F - 47 °F 53% 30.20 in 19 mi Calm Calm - -  
12:20 PM 60.8 °F - 46.4 °F 59% 30.18 in 6.2 mi Calm Calm - N/A   Partly Cloudy
12:50 PM 60.8 °F - 48.2 °F 63% 30.18 in 6.2 mi West 3.5 mph - N/A   Scattered Clouds
1:00 PM 61 °F - 48 °F 53% 30.18 in 19 mi SW 4.5 mph - -   Mostly Cloudy
1:20 PM 60.8 °F - 46.4 °F 59% 30.15 in 6.2 mi WSW 3.5 mph - N/A   Scattered Clouds
1:50 PM 60.8 °F - 46.4 °F 59% 30.15 in 6.2 mi SW 3.5 mph - N/A   Scattered Clouds
2:00 PM 61 °F - 47 °F 51% 30.17 in 22 mi West 4.5 mph - -   Overcast
2:20 PM 60.8 °F - 46.4 °F 59% 30.15 in 6.2 mi NW 2.3 mph - N/A   Mostly Cloudy
2:50 PM 60.8 °F - 46.4 °F 59% 30.15 in 6.2 mi West 3.5 mph - N/A   Mostly Cloudy
3:20 PM 59.0 °F - 44.6 °F 59% 30.15 in 6.2 mi WSW 6.9 mph - N/A   Mostly Cloudy
3:50 PM 59.0 °F - 44.6 °F 59% 30.15 in 6.2 mi SW 4.6 mph - N/A   Scattered Clouds
4:00 PM 58 °F - 45 °F 52% 30.17 in 19 mi SSW 2.2 mph - -   Overcast
4:20 PM 57.2 °F - 44.6 °F 63% 30.15 in 6.2 mi SSW 2.3 mph - N/A   Scattered Clouds
4:50 PM 55.4 °F - 46.4 °F 72% 30.15 in 6.2 mi SSE 3.5 mph - N/A   Mostly Cloudy
5:00 PM 55 °F - 46 °F 63% 30.18 in 10 mi SE 2.2 mph - -   Overcast
5:20 PM 55.4 °F - 46.4 °F 72% 30.15 in 6.2 mi Variable 2.3 mph - N/A   Mostly Cloudy
5:50 PM 53.6 °F - 44.6 °F 72% 30.15 in 6.2 mi SSE 3.5 mph - N/A   Overcast
6:00 PM 52 °F - 45 °F 69% 30.18 in 9 mi South 4.5 mph - -   Mostly Cloudy
6:20 PM 50.0 °F - 44.6 °F 82% 30.15 in 6.2 mi SSE 4.6 mph - N/A   Mostly Cloudy
6:50 PM 44.6 °F 43.1 °F 41.0 °F 87% 30.15 in 5.6 mi South 3.5 mph - N/A   Scattered Clouds
7:00 PM 47 °F - 44 °F 84% 30.18 in 6 mi South 4.5 mph - -  
7:20 PM 44.6 °F 43.1 °F 41.0 °F 87% 30.18 in 6.2 mi SSW 3.5 mph - N/A   Partly Cloudy
7:50 PM 44.6 °F 42.2 °F 41.0 °F 87% 30.18 in - South 4.6 mph - N/A   Clear
8:00 PM 44 °F - 41 °F 85% 30.19 in 3 mi South 2.2 mph - -  
8:20 PM 44.6 °F 43.1 °F 42.8 °F 93% 30.18 in - South 3.5 mph - N/A   Clear
8:50 PM 44.6 °F 41.4 °F 42.8 °F 93% 30.18 in - South 5.8 mph - N/A   Clear
9:00 PM 43 °F - 41 °F 90% 30.20 in 5 mi South 4.5 mph - -  
9:50 PM 42.8 °F 40.1 °F 41.0 °F 93% 30.18 in 4.3 mi South 4.6 mph - N/A   Unknown
10:20 PM 44.6 °F 42.2 °F 41.0 °F 87% 30.18 in 3.7 mi South 4.6 mph - N/A   Scattered Clouds
10:50 PM 44.6 °F 43.1 °F 42.8 °F 93% 30.18 in 4.3 mi South 3.5 mph - N/A   Mostly Cloudy
11:20 PM 42.8 °F 41.1 °F 41.0 °F 93% 30.18 in 4.3 mi South 3.5 mph - N/A   Scattered Clouds